Regional Weather Roundup
Issued by NWS Charleston, WV

Home | Current Version | Previous Version | Graphics & Text | Print | Product List | Glossary On
Versions: 1 2 3 4 5 6 7 8 9 10 11 12 13 14 15 16 17 18 19 20 21 22 23 24 25 26 27 28 29 30 31 32 33 34 35 36 37 38 39 40 41 42 43 44 45 46 47 48 49 50
000
ASUS41 KRLX 262210
RWRRLX
West Virginia Regional Weather Roundup
National Weather Service Charleston WV
500 PM EST THU FEB 26 2015

Note: "fair" indicates few or no clouds below 12,000 feet with no
significant weather and/or obstructions to visibility.

WVZ003-262300-
Northern Panhandle of West Virginia

CITY           SKY/WX    TMP DP  RH WIND       PRES   REMARKS
WHEELING       CLOUDY    20  11  68 NW13      30.01R WCI   7
$$

WVZ009-262300-
Northwest West Virginia

CITY           SKY/WX    TMP DP  RH WIND       PRES   REMARKS
PARKERSBURG    SUNNY     28  11  48 NW12      30.06R
$$

WVZ006-262300-
Western West Virginia

CITY           SKY/WX    TMP DP  RH WIND       PRES   REMARKS
HUNTINGTON     MOSUNNY   32  16  51 NW9       30.02R
$$

WVZ015-262300-
West Central West Virginia

CITY           SKY/WX    TMP DP  RH WIND       PRES   REMARKS
CHARLESTON     MOSUNNY   36  15  42 N10       29.98R
$$

WVZ022-031-262300-
North Central West Virginia

CITY           SKY/WX    TMP DP  RH WIND       PRES   REMARKS
CLARKSBURG     MOSUNNY   33  18  53 NW9       29.95R
MORGANTOWN     PTSUNNY   27  15  61 NW8       29.98R
$$

WVZ025-035-042-045-262300-
Southern West Virginia

CITY           SKY/WX    TMP DP  RH WIND       PRES   REMARKS
BECKLEY        CLOUDY    29  22  75 W6        29.91R
LOGAN          PTSUNNY   34  19  55 CALM      29.93R
BLUEFIELD      CLOUDY    30  24  78 W8        29.91R
LEWISBURG      CLOUDY    33  26  75 W7        29.91R
$$

WVZ047-262300-
Northern Mountains of West Virginia

CITY           SKY/WX    TMP DP  RH WIND       PRES   REMARKS
ELKINS         MOSUNNY  N/A N/A N/A W6        29.90R
$$

WVZ052-262300-
Eastern Panhandle of West Virginia

CITY           SKY/WX    TMP DP  RH WIND       PRES   REMARKS
MARTINSBURG    CLOUDY    35  21  56 CALM      29.96R
PETERSBURG     CLOUDY    35  22  60 E3        29.94R
$$


USA.gov is the U.S. government's official web portal to all federal, state and local government web resources and services.